Tracking 31013 objects as of 10-Jul-2025
HD Live streaming from Space Station
objects crossing your sky now

DELTA 1 DEB

Track DELTA 1 DEB now!
10-day predictions


NORAD ID: 10748
Int'l Code: 1976-077AV
Perigee: 1,499.1 km
Apogee: 1,616.1 km
Inclination: 102.4 °
Period: 117.1 minutes
Semi major axis: 7928 km
RCS: 0.0952 m2 (small)
Launch date: July 29, 1976
Source: United States (US)
Launch site: AIR FORCE WESTERN TEST RANGE (AFWTR)

Note: This is SATELLITE DEBRIS
Your satellite tracking list
Your tracking list is empty




NASA's NSSDC Master Catalog

Two Line Element Set (TLE):
1 10748U 76077AV  25191.51804288 -.00000001  00000-0  37958-3 0  9998
2 10748 102.4420 170.3481 0073811 340.0279 135.0237 12.29727461196710
Source of the keplerian elements: AFSPC